N6YV Weather Reports


time (UTC)temp
F
wind
direction
speed
knots
gust
knots
rain 1hr
in
rain 24hr
in
rain mn
in
humidity
%
barometer
mb
20260905031543 59 221 9.6 0.0 0.00 0.00 0.00 47 1003.4
20260905030040 59 196 7.8 0.0 0.00 0.00 0.00 47 1003.3
20260905024537 60 248 7.8 0.0 0.00 0.00 0.00 47 1003.1
20260905023040 60 194 5.2 0.0 0.00 0.00 0.00 47 1003.3
20260905021538 60 227 2.6 0.0 0.00 0.00 0.00 46 1003.5
20260905020036 61 239 3.5 0.0 0.00 0.00 0.00 45 1003.5
20260905014535 62 247 6.1 0.0 0.00 0.00 0.00 44 1003.2
20260905013034 62 260 6.1 0.0 0.00 0.00 0.00 43 1003.2
20260905011535 63 235 7.8 0.0 0.00 0.00 0.00 41 1003.2
20260905010033 65 245 6.1 0.0 0.00 0.00 0.00 39 1003.2
20260905004534 65 183 7.8 0.0 0.00 0.00 0.00 38 1003.2
20260905003034 65 205 7.0 0.0 0.00 0.00 0.00 40 1003.2
20260905001532 66 212 7.8 0.0 0.00 0.00 0.00 39 1003.3
20260905000031 65 245 7.0 0.0 0.00 0.00 0.00 41 1003.4
20260904234530 66 211 7.0 0.0 0.00 0.00 0.00 41 1003.4
20260904233030 67 168 7.8 0.0 0.00 0.00 0.00 38 1003.4
20260904231535 67 211 8.7 0.0 0.00 0.00 0.00 38 1003.3
20260904230030 68 171 7.8 0.0 0.00 0.00 0.00 38 1003.3
20260904224529 68 170 7.8 0.0 0.00 0.00 0.00 38 1003.2
20260904223030 68 207 8.7 0.0 0.00 0.00 0.00 38 1003.3
20260904221528 68 216 9.6 0.0 0.00 0.00 0.00 38 1003.3
20260904220028 68 236 7.8 0.0 0.00 0.00 0.00 38 1003.2
20260904214539 68 205 7.8 0.0 0.00 0.00 0.00 39 1003.5
20260904213032 67 232 6.1 0.0 0.00 0.00 0.00 40 1003.3
20260904211526 68 215 7.0 0.0 0.00 0.00 0.00 39 1003.4
20260904210028 66 250 6.1 0.0 0.00 0.00 0.00 43 1003.4
20260904204523 64 225 7.0 0.0 0.00 0.00 0.00 45 1003.4
20260904203017 64 211 7.0 0.0 0.00 0.00 0.00 46 1003.4
20260904201515 64 237 7.0 0.0 0.00 0.00 0.00 46 1003.4
20260904200019 64 202 7.8 0.0 0.00 0.00 0.00 45 1003.4
20260904194512 63 227 8.7 0.0 0.00 0.00 0.00 47 1003.4
20260904193010 63 238 8.7 0.0 0.00 0.00 0.00 48 1003.4
20260904191510 62 191 7.8 0.0 0.00 0.00 0.00 50 1003.3
20260904190006 61 217 7.0 0.0 0.00 0.00 0.00 51 1003.2
20260904184504 61 223 5.2 0.0 0.00 0.00 0.00 53 1003.1
20260904183003 60 261 6.1 0.0 0.00 0.00 0.00 54 1003.1
20260904181502 58 211 1.7 0.0 0.00 0.00 0.00 65 1003.2
20260904180000 58 59 0.9 0.0 0.00 0.00 0.00 68 1002.9
20260904174559 58 59 1.7 0.0 0.00 0.00 0.00 67 1003.0
20260904173126 58 78 0.9 0.0 0.00 0.00 0.00 66 1002.6
20260904171608 59 79 1.7 0.0 0.00 0.00 0.00 61 1002.6
20260904170056 60 223 2.6 0.0 0.00 0.00 0.00 53 1002.4
20260904164557 60 192 2.6 0.0 0.00 0.00 0.00 54 1002.1
20260904163053 59 234 3.5 0.0 0.00 0.00 0.00 55 1002.0
20260904161550 59 204 4.3 0.0 0.00 0.00 0.00 58 1001.7
20260904160049 58 228 4.3 0.0 0.00 0.00 0.00 59 1001.7
20260904154548 58 219 3.5 0.0 0.00 0.00 0.00 62 1001.6
20260904153047 58 239 5.2 0.0 0.00 0.00 0.00 62 1001.6
20260904151548 58 205 6.1 0.0 0.00 0.00 0.00 62 1001.6
20260904150105 58 199 6.1 0.0 0.00 0.00 0.00 60 1001.5
20260904144542 58 221 4.3 0.0 0.00 0.00 0.00 61 1001.3
20260904143041 57 242 3.5 0.0 0.00 0.00 0.00 62 1001.2
20260904141545 57 215 4.3 0.0 0.00 0.00 0.00 63 1001.1
20260904140041 56 226 5.2 0.0 0.00 0.00 0.00 64 1000.9
20260904134546 57 225 5.2 0.0 0.00 0.00 0.00 63 1000.9
20260904133033 58 204 6.1 0.0 0.00 0.00 0.00 56 1000.9
20260904131532 58 202 6.1 0.0 0.00 0.00 0.00 57 1000.7
20260904130035 58 223 7.0 0.0 0.00 0.00 0.00 56 1000.6
20260904124530 58 253 6.1 0.0 0.00 0.00 0.00 56 1000.5
20260904123029 58 206 6.1 0.0 0.00 0.00 0.00 56 1000.6
20260904121528 58 199 6.1 0.0 0.00 0.00 0.00 55 1000.6
20260904120027 59 209 5.2 0.0 0.00 0.00 0.00 54 1000.7
20260904114532 59 213 5.2 0.0 0.00 0.00 0.00 54 1000.4
20260904113025 59 215 6.1 0.0 0.00 0.00 0.00 53 1000.4
20260904111528 59 216 6.1 0.0 0.00 0.00 0.00 53 1000.4
20260904110023 59 207 5.2 0.0 0.00 0.00 0.00 53 1000.4
20260904104522 59 199 7.8 0.0 0.00 0.00 0.00 52 1000.3
20260904103021 59 190 7.0 0.0 0.00 0.00 0.00 52 999.9
20260904101520 59 206 7.0 0.0 0.00 0.00 0.00 52 1000.1
20260904100020 59 218 7.8 0.0 0.00 0.00 0.00 52 1000.1
20260904094532 59 220 7.8 0.0 0.00 0.00 0.00 51 1000.1
20260904093016 59 213 8.7 0.0 0.00 0.00 0.00 52 1000.3
20260904091516 59 206 10.4 0.0 0.00 0.00 0.00 52 1000.3
20260904090014 59 209 8.7 0.0 0.00 0.00 0.00 52 1000.5
20260904084514 59 181 7.8 0.0 0.00 0.00 0.00 52 1000.7
20260904083013 59 182 7.8 0.0 0.00 0.00 0.00 51 1000.7
20260904081509 59 192 7.8 0.0 0.00 0.00 0.00 51 1000.8
20260904080009 59 201 5.2 0.0 0.00 0.00 0.00 51 1001.0
20260904074502 59 213 6.1 0.0 0.00 0.00 0.00 50 1001.1
20260904073003 59 218 6.1 0.0 0.00 0.00 0.00 49 1001.2
20260904071559 59 203 6.1 0.0 0.00 0.00 0.00 47 1001.1
20260904070100 59 192 6.1 0.0 0.00 0.00 0.00 48 1001.1
20260904064556 58 203 5.2 0.0 0.00 0.00 0.00 52 1000.9
20260904063107 59 156 6.1 0.0 0.00 0.00 0.00 51 1001.0
20260904061556 59 209 5.2 0.0 0.00 0.00 0.00 51 1000.9
20260904060056 59 202 6.1 0.0 0.00 0.00 0.00 50 1000.9
20260904054555 59 210 6.1 0.0 0.00 0.00 0.00 51 1000.8
20260904053054 59 219 7.8 0.0 0.00 0.00 0.00 52 1000.9
20260904051602 59 220 7.8 0.0 0.00 0.00 0.00 53 1001.1
20260904050056 59 167 8.7 0.0 0.00 0.00 0.00 53 1001.2
20260904044553 58 193 9.6 0.0 0.00 0.00 0.00 55 1000.9
20260904043054 59 185 7.8 0.0 0.00 0.00 0.00 54 1001.2
20260904041551 60 209 9.6 0.0 0.00 0.00 0.00 51 1001.1
20260904034554 60 227 9.6 0.0 0.00 0.00 0.00 50 1001.3
20260904033050 60 199 9.6 0.0 0.00 0.00 0.00 50 1001.0